Regional Weather Roundup
Issued by NWS

Home | Current Version | Previous Version | Graphics & Text | Print | Product List | Glossary On
Versions: 1 2 3 4 5 6 7 8 9 10 11 12 13 14 15 16 17 18 19 20 21 22 23 24 25 26 27 28 29 30 31 32 33 34 35 36 37 38 39 40 41 42 43 44 45 46 47 48 49 50
000
ASUS45 KSLC 110910
RWRUT

UTAH REGIONAL WEATHER ROUNDUP
NATIONAL WEATHER SERVICE SALT LAKE CITY UT
200 AM MST MON DEC 11 2017

UTZ001>011-023>025-111000-

NORTHERN UTAH

CITY           SKY/WX    TMP DP  RH WIND       PRES   REMARKS
BRIGHAM CITY   CLEAR     18  14  86 CALM      30.62F
HILL AFB       PTCLDY    24  13  65 E13       30.58F WCI  12
LOGAN          CLOUDY    20  14  77 N5        30.63F WCI  13
OGDEN          PTCLDY    21  14  74 S6        30.59F WCI  13
SALT LAKE CITY PTCLDY    24  21  88 SE3       30.61S
TOOELE VALLEY  PTCLDY    16  14  93 S5        30.62S FOG     WCI   9
WENDOVER       PTCLDY    15  12  88 CALM      30.63R
HEBER CITY       N/A     12   9  85 CALM      30.57S
WEST JORDAN    PTCLDY    20  18  93 CALM      30.61S

$$

UTZ011>015-024>027-111000-

CENTRAL/NORTHEAST UTAH

CITY           SKY/WX    TMP DP  RH WIND       PRES   REMARKS
PROVO AIRPORT  PTCLDY    16  13  88 CALM      30.61F
MOAB/CANYONLAN MOCLDY    17   1  49 CALM      30.52F
DELTA          CLOUDY    12   9  85 SE3       30.58S
PRICE          PTCLDY    21  -2  36 N7        30.50F WCI  12
ROOSEVELT      CLOUDY    12   5  73 CALM      30.60R
VERNAL         CLOUDY    16   6  65 W6        30.56F WCI   7

$$

UTZ013>016-019>022-027-111000-

SOUTHERN UTAH

CITY           SKY/WX    TMP DP  RH WIND       PRES   REMARKS
BRYCE CANYON   PTCLDY     8 -13  37 W12       30.55S WCI  -7
CEDAR CITY     MOCLDY    15   5  64 SE3       30.52F
MILFORD        MOCLDY    11   7  84 CALM      30.56S
ST GEORGE      MOSUNNY   36   1  22 SE9       30.47R WCI  29
HANKSVILLE     CLOUDY    16   1  53 CALM      30.57S
BLANDING         N/A     28   1  30 CALM      30.56S

$$

REGIONAL REPORTS     COLORADO/ARIZONA

CITY           SKY/WX    TMP DP  RH WIND       PRES   REMARKS
CRAIG, CO      CLOUDY     7   1  76 CALM      30.56R
GRAND JUNCTION CLOUDY    17   0  47 N7        30.55R WCI   8
RIFLE, CO      CLOUDY    16   3  56 E6        30.58R WCI   7
MONTROSE, CO   CLOUDY    17  -1  45 SE9       30.56F WCI   6
CORTEZ, CO     CLOUDY     8  -3  61 S7        30.50F WCI  -3
COLORADO CITY    N/A     21  -6  30 CALM      30.49R
PAGE, AZ       MOCLDY    30  12  47 SE3       30.51R
GRAND CANYON   MOCLDY    21 -12  22 NE5       30.48R WCI  15
KINGMAN, AZ    PTCLDY    35  -1  21 E6        30.36S WCI  30
FLAGSTAFF, AZ  MOCLDY    21  -8  27 E5        30.48F WCI  15

$$

REGIONAL REPORTS    NEVADA/IDAHO/WYOMING

CITY           SKY/WX    TMP DP  RH WIND       PRES   REMARKS
LAS VEGAS, NV  MOCLDY    45   4  18 CALM      30.36R
ELY, NY        MOCLDY     9  -7  48 S15       30.55F WCI  -8
ELKO, NV       MOCLDY    14  11  87 CALM      30.55S
POCATELLO, ID  CLOUDY    11   7  84 NW3       30.60S
BURLEY, ID     CLOUDY    16  12  84 MISG      30.58S
FORT BRIDGER,    N/A     37   1  22 W12       30.55S WCI  29
EVANSTON, WY   CLOUDY    28   5  37 S3        30.55F
ROCK SPRINGS,  CLOUDY    28   6  39 W9        30.50S WCI  19

$$



USA.gov is the U.S. government's official web portal to all federal, state and local government web resources and services.